Main page
METAR-TAF:

METAR-TAF

Airports :

Ventspils International Airport

Ventspils, Latvia

latitude: 57-21-28N, longitude: 021-32-39E, elevation: 6 m

Current weather observation

The report was made 19 minutes ago, at 22:50 UTC
Wind 6 kt from the Northwest
Temperature 0°C
Humidity 80%
Pressure 1006 hPa
Visibility 10 km or more
Overcast at a height of 2400 ft

METAR: EVVA 272250Z AUTO 31006KT 9999 OVC024 00/M03 Q1006

Time: 01:09 (23:09 UTC)


TAF: missing

Weather observations and forecasts of more than 4000 airports (METAR and TAF reports).

The available stations are represented by yellow and red dots on the map.

Hover mouse over dot to see the name of the station.

Then click to see weather observations and forecasts.

To change the map : click on the green buttons with a black cross to zoom in, on the green button with a dash to zoom out, or on the green arrows for adjacent maps.


METAR-TAF: